SCP
0 0 0 0 0 0 0 0 0 0 0 0 0 1 1 1 1 1 1 1 1 1 1 1 1 1 1 1 1 1 1 1 1 1 1 1 1 1 1 1 1 1 1 1
0 0 0 0 0 0 0 0 0 0 0 0 0 1 1 1 1 1 1 1 1 1 1 1 1 1 1 1 1 1 1 1 2 2 2 1 1 1 1 1 1 1 1 1
0 0 0 0 0 0 0 0 0 0 0 0 0 1 1 1 1 1 1 1 1 1 1 1 1 1 2 2 2 2 2 2 2 2 2 2 1 1 2 2 1 1 1 1
0 0 0 0 0 0 0 0 0 0 0 0 1 1 1 1 1 1 1 1 1 1 1 1 1 1 2 2 2 2 2 2 2 2 2 2 1 2 2 1 1 1 1 1
0 0 0 0 0 0 0 0 0 0 0 1 1 1 1 1 1 1 1 1 1 1 1 1 1 1 2 2 2 2 2 2 2 2 2 2 2 2 2 1 1 1 1 1
0 0 0 0 0 0 0 0 0 0 0 1 1 1 1 1 1 1 1 1 1 1 1 1 1 2 2 2 2 2 2 2 2 2 2 2 2 2 2 1 1 1 1 1
0 0 0 0 0 0 0 0 0 0 1 1 1 1 1 1 1 1 1 1 1 1 1 1 1 1 2 2 2 2 2 2 2 2 2 2 2 2 2 1 1 1 1 1
0 0 0 0 0 0 0 1 1 1 1 1 1 1 1 1 1 1 1 1 1 1 1 1 1 1 2 2 2 2 2 2 2 2 1 1 2 2 1 1 1 1 1 1
0 0 0 0 0 0 1 1 1 1 1 1 1 1 1 1 1 1 1 1 1 1 1 1 1 1 1 2 2 2 2 2 2 2 1 2 1 1 1 1 1 1 1 1
0 0 0 0 0 0 0 0 1 1 1 1 1 1 1 1 1 1 1 1 1 1 1 1 1 1 1 1 1 1 2 2 2 2 2 2 2 1 1 1 1 1 1 1
0 0 0 0 0 0 0 0 1 1 1 1 1 1 1 1 1 1 1 1 1 1 1 1 1 1 1 1 1 1 2 2 2 1 1 1 1 1 1 1 1 1 1 1
0 0 0 0 0 0 0 0 1 1 1 1 1 1 1 1 1 1 1 1 1 1 1 1 1 1 1 1 2 2 2 1 1 1 1 1 1 1 1 0 0 0 0 1
0 0 0 0 0 0 0 0 0 1 1 1 1 1 1 1 1 1 1 1 1 1 1 1 1 1 1 1 1 2 1 1 1 1 1 1 1 1 1 0 0 0 0 0
0 0 0 0 0 0 0 0 0 0 1 1 1 1 1 1 1 1 1 1 1 1 1 1 1 1 1 1 1 1 1 1 1 1 1 1 1 1 1 1 0 0 0 0
0 0 0 0 0 0 0 0 0 0 0 1 1 1 1 1 1 1 1 1 1 1 1 1 1 1 1 1 1 1 1 1 1 1 1 1 1 1 1 1 1 1 0 0
0 0 0 0 0 0 0 0 0 0 0 0 1 1 1 1 1 1 1 1 1 1 1 1 1 1 1 1 1 1 1 1 1 1 1 1 1 1 1 1 1 1 1 1
0 0 0 0 0 0 0 0 0 0 0 0 1 1 1 1 1 1 1 1 1 1 1 1 1 1 1 1 1 1 1 0 0 0 1 1 1 1 1 1 1 1 1 1
0 0 0 0 0 0 0 0 0 0 0 0 0 1 1 1 1 1 1 1 1 1 1 1 1 1 1 1 1 0 0 0 0 0 0 0 0 0 0 1 1 1 1 1
0 0 0 0 0 0 0 0 0 0 0 0 0 0 0 0 0 0 0 0 0 0 0 0 0 1 0 0 0 0 0 0 0 0 0 0 0 0 0 0 0 1 1 1
0 0 0 0 0 0 0 0 0 0 0 0 0 0 0 0 0 0 0 0 0 0 0 0 0 0 0 0 0 0 0 0 0 0 0 0 0 0 0 0 0 0 0 1
0 0 0 0 0 0 0 0 0 0 0 0 0 0 0 0 0 0 0 0 0 0 0 0 0 0 0 0 0 0 0 0 0 0 0 0 0 0 0 0 0 0 0 0
0 0 0 0 0 0 0 0 0 0 0 0 0 0 0 0 0 0 0 0 0 0 0 0 0 0 0 0 0 0 0 0 0 0 0 0 0 0 0 0 0 0 0 0
0 0 0 0 0 0 0 0 0 0 0 0 0 0 0 0 0 0 0 0 0 0 0 0 0 0 0 0 0 0 0 0 0 0 0 0 0 0 0 0 0 0 0 0
0 0 0 0 0 0 0 0 0 0 0 0 0 0 0 0 0 0 0 0 0 0 0 0 0 0 0 0 0 0 0 0 0 0 0 0 0 0 0 0 0 0 0 0
0 0 0 0 0 0 0 0 0 0 0 0 0 0 0 0 0 0 0 0 0 0 0 0 0 0 0 0 0 0 0 0 0 0 0 0 0 0 0 0 0 0 0 0
0 0 0 0 0 0 0 0 0 0 0 0 0 0 0 0 0 0 0 0 0 0 0 0 0 0 0 0 0 0 0 0 0 0 0 0 0 0 0 0 0 0 0 0
0 0 0 0 0 0 0 0 0 0 0 0 0 0 0 0 0 0 0 0 0 0 0 0 0 0 0 0 0 0 0 0 0 0 0 0 0 0 0 0 0 0 0 0
Wind_Speed
12 8 10 12 14 15 16 14 13 10 10 5 3 4 4 4 5 6 6 7 7 7 7 7 7 7 8 8 8 8 8 8 8 7 7 6 6 6 6 6 5 5 5 5
13 11 12 13 14 14 15 14 13 12 10 3 2 2 3 4 5 6 6 6 6 6 6 7 7 7 7 7 7 8 8 7 6 6 6 6 6 6 5 5 4 4 5 5
13 12 13 17 15 14 14 12 12 12 7 3 4 3 4 4 4 5 5 5 5 4 5 5 5 6 6 6 7 7 7 6 6 6 6 5 5 5 5 5 5 5 5 5
9 11 18 8 6 11 12 11 10 9 6 5 3 2 4 3 4 4 4 4 4 3 4 4 4 5 5 6 6 7 6 6 6 6 6 5 5 5 5 5 5 5 5 5
10 14 14 8 7 9 11 10 8 8 6 4 4 5 5 3 3 3 3 3 3 3 2 3 3 4 5 5 6 6 6 6 6 6 6 6 6 5 5 5 5 5 5 6
10 14 15 7 6 6 8 10 6 7 7 5 6 7 4 4 4 4 3 3 2 2 3 3 3 4 4 4 4 4 4 4 4 5 5 5 5 5 5 5 5 5 5 5
13 13 8 2 3 8 11 4 2 4 5 6 5 2 3 5 5 4 4 3 3 3 3 3 3 4 4 4 4 3 3 4 4 4 5 5 5 4 4 4 4 5 5 5
11 14 9 3 5 6 0 2 1 2 3 4 4 4 6 6 5 4 4 3 3 3 3 2 2 3 3 3 2 2 3 3 3 4 3 3 4 4 4 5 5 5 5 5
4 3 2 0 1 0 1 1 1 2 3 4 5 6 6 5 5 4 3 3 2 3 3 3 2 2 1 1 1 2 2 2 3 3 3 4 4 4 4 5 5 5 5 5
4 3 2 1 1 1 1 2 2 2 3 4 5 6 6 5 4 3 3 3 2 2 2 2 2 2 1 1 1 2 2 2 2 4 4 4 3 4 4 4 5 5 5 5
5 3 2 2 1 1 1 1 1 1 2 4 5 5 5 5 4 3 2 2 1 1 1 1 1 1 1 0 1 2 2 2 3 3 4 3 3 3 5 4 4 4 4 4
4 3 3 1 0 0 0 1 1 1 2 3 4 4 3 3 2 2 1 1 1 1 0 0 1 0 0 0 1 2 2 3 3 2 3 4 4 3 2 3 3 4 3 4
2 2 2 0 0 1 0 0 0 1 2 3 3 3 2 2 1 1 2 2 1 1 0 1 0 1 1 1 1 2 2 3 3 3 3 4 4 4 4 4 4 4 5 4
2 2 2 1 0 1 0 0 0 1 2 3 2 2 2 2 2 2 2 2 1 1 1 1 0 1 2 1 2 2 3 3 3 3 4 3 4 4 4 5 4 4 5 6
3 4 3 2 1 1 0 1 1 2 2 2 2 2 2 2 2 2 2 1 1 1 1 0 1 1 2 2 2 3 3 3 2 3 3 3 4 4 4 5 4 3 3 5
3 3 3 3 2 2 2 2 2 2 2 2 2 2 1 1 1 1 1 2 2 2 1 1 1 2 2 2 2 3 2 2 3 3 3 4 4 4 4 4 4 4 4 3
4 4 3 3 3 3 3 3 3 2 2 2 2 1 2 2 2 1 1 1 1 2 2 2 2 2 2 3 3 3 3 2 4 4 4 4 4 4 4 4 4 4 3 1
4 4 4 4 4 4 4 4 3 2 1 1 1 1 1 2 2 1 1 1 1 2 2 2 2 2 3 3 3 3 3 3 3 3 3 3 3 3 3 3 3 4 2 3
5 4 4 4 4 4 3 3 2 1 1 1 1 1 1 1 1 1 1 2 2 3 2 2 1 3 3 2 3 3 3 3 3 3 3 2 3 3 3 3 3 3 2 1
3 3 3 3 2 2 3 2 2 1 1 1 1 1 1 1 1 2 2 2 2 2 2 2 3 3 2 2 4 3 3 3 3 3 3 3 3 3 3 2 2 2 2 1
2 2 2 2 1 1 1 2 1 1 1 1 1 1 1 1 2 2 2 2 1 2 2 1 2 2 2 2 5 3 3 3 3 2 3 3 2 3 2 2 2 2 2 2
1 1 0 0 1 0 1 1 1 1 1 1 0 1 1 2 2 2 2 2 2 1 2 1 1 2 2 4 3 2 2 2 2 2 2 2 2 2 2 2 3 3 2 2
0 1 1 1 1 2 2 1 1 1 1 0 1 1 2 2 2 2 1 1 1 1 1 1 3 2 3 4 2 2 2 2 2 2 2 2 2 2 2 2 3 2 3 3
2 2 1 2 2 2 2 2 2 1 1 1 0 1 1 1 1 1 1 1 1 1 1 2 2 2 3 2 2 2 1 1 1 2 2 2 2 2 2 2 2 3 3 3
1 1 1 2 2 2 2 2 2 2 2 2 2 2 1 1 1 1 1 2 2 1 1 3 2 1 1 2 2 3 2 3 3 3 2 2 2 2 2 2 3 3 3 3
1 1 2 2 2 2 2 2 2 2 2 2 2 2 2 2 2 2 1 2 3 2 2 2 2 1 2 2 3 3 3 2 2 2 2 2 2 2 2 2 3 3 3 3
2 2 2 2 2 2 2 2 2 2 3 3 3 3 3 2 2 3 3 3 3 2 3 3 2 2 3 3 3 3 3 3 3 2 2 2 2 2 2 2 2 2 3 2
Wind_Direction
241 238 227 222 221 218 230 242 252 251 250 244 226 208 196 184 174 173 166 166 167 166 162 163 167 174 179 180 179 183 187 189 187 188 188 186 188 193 194 196 196 198 204 207
228 228 228 228 225 223 228 236 243 252 250 249 224 207 188 183 178 174 170 167 162 164 163 165 172 176 173 176 176 179 186 188 182 182 184 185 187 190 191 196 200 197 205 208
225 216 225 227 221 221 223 228 237 244 246 230 212 198 192 193 188 178 171 168 164 163 170 175 175 173 173 174 175 179 184 184 179 180 181 183 187 185 189 195 197 201 209 210
229 211 229 228 218 226 224 228 237 248 247 231 218 189 176 187 186 177 169 166 167 173 179 178 174 173 172 170 173 178 181 182 180 181 178 177 178 181 192 198 198 202 209 211
228 225 228 205 202 214 220 225 231 235 230 212 186 179 164 162 172 166 158 151 157 176 172 159 154 159 158 170 170 171 176 182 182 183 181 179 182 185 193 199 205 210 209 210
228 235 233 212 179 211 226 223 220 223 217 203 193 218 178 148 156 152 144 140 146 147 132 127 132 138 150 159 162 170 174 177 179 190 190 192 192 192 197 200 207 217 207 211
229 235 233 138 187 199 221 213 171 202 203 203 199 246 119 140 146 141 131 125 124 116 109 107 125 140 151 160 170 172 167 173 178 193 197 198 196 195 201 204 204 217 209 209
225 233 222 129 193 216 295 61 199 193 191 182 162 136 124 129 136 139 137 134 132 119 107 103 119 143 153 160 164 158 164 175 182 194 212 198 198 198 201 206 210 214 211 217
237 238 72 129 215 247 325 291 277 220 186 168 162 150 141 135 132 134 133 124 121 117 108 99 100 122 148 135 154 169 169 177 197 206 213 211 206 204 207 210 223 222 218 219
220 197 202 216 220 252 267 275 271 231 196 178 168 156 150 144 139 137 130 122 108 108 108 101 95 107 101 85 197 198 192 188 200 215 216 207 212 214 219 220 227 231 229 228
215 205 204 199 235 265 291 259 175 173 185 182 173 163 155 149 145 136 119 110 104 100 96 102 84 82 119 167 221 224 219 218 220 229 223 213 217 232 231 232 236 237 241 237
226 196 227 206 32 337 135 129 133 144 154 163 171 169 162 155 149 148 145 136 153 180 172 105 79 356 329 239 221 235 232 231 237 240 232 219 213 221 234 238 205 217 250 265
269 299 294 267 347 352 150 136 119 164 163 156 154 162 174 174 173 186 195 206 206 209 208 245 247 311 335 330 274 256 263 255 251 246 242 226 219 228 228 216 209 208 212 219
239 262 236 209 271 347 342 77 81 142 148 150 150 155 167 188 206 210 216 224 232 245 235 243 282 327 327 301 277 275 275 270 263 254 253 247 238 236 236 234 216 212 205 200
237 246 251 253 248 267 277 199 184 162 150 157 163 175 188 207 217 226 233 234 237 250 243 290 316 321 309 288 271 274 281 282 287 289 278 265 255 248 245 245 240 231 210 179
245 232 221 221 242 267 276 259 238 222 198 194 206 210 204 194 207 236 240 238 245 261 266 266 276 287 288 283 272 263 259 265 266 267 264 261 256 252 249 245 240 238 236 213
231 225 218 232 256 273 281 283 271 256 241 230 224 215 199 201 217 235 249 250 269 286 275 265 269 278 277 269 266 265 253 226 221 244 249 252 254 256 254 252 249 244 243 187
250 256 255 256 265 274 282 290 281 261 247 241 215 208 221 230 248 269 283 271 263 285 284 269 279 284 275 269 267 265 260 253 245 247 253 258 265 263 259 254 256 259 245 174
259 260 263 263 265 266 271 280 281 273 240 198 197 214 246 271 275 272 270 267 262 270 295 317 298 270 279 290 277 249 247 249 255 257 259 257 255 258 261 262 265 265 264 230
257 255 252 255 256 255 262 254 230 221 208 175 182 195 249 280 286 281 279 280 292 315 315 316 296 294 286 280 274 255 245 243 246 251 255 255 257 257 259 268 276 279 275 261
256 248 237 230 238 252 244 218 201 195 173 166 189 236 275 296 299 294 286 292 327 326 308 266 268 298 309 303 267 261 253 249 247 248 252 258 264 267 267 267 268 268 266 265
263 236 213 146 161 140 133 164 160 158 141 134 218 276 280 278 285 289 295 308 327 338 283 290 338 17 336 292 274 275 272 270 270 273 274 275 273 273 273 267 260 260 264 264
71 99 103 106 112 96 88 107 127 132 132 196 275 287 289 303 295 283 297 344 346 8 313 3 20 356 302 277 284 287 287 282 287 293 290 282 281 278 266 262 268 276 279 276
66 75 95 113 111 101 92 83 74 68 64 40 19 353 313 279 279 330 5 62 59 22 356 57 47 333 293 299 329 325 307 305 306 300 303 297 288 286 282 274 269 270 278 280
58 82 112 117 112 101 98 96 93 90 80 70 68 64 46 14 3 25 23 51 79 90 70 83 89 345 347 17 12 5 2 2 350 334 325 311 303 300 294 292 291 285 278 273
64 85 95 91 82 95 108 104 92 83 79 75 65 53 49 48 52 63 68 72 72 74 64 74 76 65 42 40 34 25 24 32 21 3 0 338 332 328 316 304 289 284 283 286
88 93 99 99 97 99 109 105 93 79 73 71 66 58 56 58 64 71 73 69 67 62 57 59 60 52 46 43 37 31 32 32 30 27 16 3 2 359 352 329 315 309 307 310